This demonstration page uses our WeatherBlox Daily Observations layout. Learn more.

Left ArrowRight Arrow

39.08367, -84.50855

Hourly Observations for December 25, 2019

Temp ( °F °C ) Dew Point ( °F °C ) Humidity (%) Winds ( mph kmh ) Pressure ( in mb ) Visibility ( mi km ) Precip ( " mm )
12:03 am 00:03 Clear with Mist and Fog 32 undefined 31 -0.6 96 96 N N/A 30.10 1019 1 2 N/A
12:08 am 00:08 Clear with Freezing Fog 31 -0.6 31 -0.6 100 100 N N/A 30.10 1019 0 0 N/A
12:27 am 00:27 Clear with Mist and Fog 31 -0.6 30 -1.1 96 96 N N/A 30.09 1019 1 2 N/A
12:30 am 00:30 Clear with Mist and Fog 31 -0.6 30 -1.1 96 96 N N/A 30.09 1019 3 5 N/A
12:36 am 00:36 Clear with Mist and Fog 31 -0.6 30 -1.1 96 96 N N/A 30.09 1019 2 3 N/A
12:45 am 00:45 Clear with Freezing Fog 30 -1.1 30 -1.1 100 100 N N/A 30.09 1019 1 1 N/A
12:53 am 00:53 Clear with Freezing Fog 29 -1.7 28 -2.2 96 96 ENE 3 6 30.07 1018 1 1 N/A
1:21 am 01:21 Clear with Mist and Fog 31 -0.6 31 -0.6 100 100 N N/A 30.09 1019 1 2 N/A
1:31 am 01:31 Clear with Freezing Fog 30 -1.1 29 -1.7 96 96 N N/A 30.09 1019 1 1 N/A
1:53 am 01:53 Clear with Freezing Fog 29 -1.7 29 -1.7 100 100 N N/A 30.06 1018 1 1 N/A
2:03 am 02:03 Mostly Cloudy with Freezing Fog 29 -1.7 28 -2.2 96 96 N N/A 30.08 1019 0 0 N/A
2:19 am 02:19 Clear with Freezing Fog 29 -1.7 28 -2.2 96 96 N N/A 30.08 1019 0 0 N/A
2:37 am 02:37 Clear with Freezing Fog 28 -2.2 27 -2.8 96 96 N N/A 30.09 1019 1 1 N/A
2:53 am 02:53 Clear with Freezing Fog 29 -1.7 28 -2.2 96 96 N N/A 30.06 1018 1 1 N/A
3:04 am 03:04 Mostly Cloudy with Freezing Fog 29 -1.7 28 -2.2 96 96 N N/A 30.09 1019 0 0 N/A
3:13 am 03:13 Mostly Cloudy with Freezing Fog 29 -1.7 28 -2.2 96 96 N N/A 30.10 1019 1 1 N/A
3:40 am 03:40 Clear with Freezing Fog 27 -2.8 25 -3.9 92 92 N N/A 30.10 1019 1 1 N/A
3:47 am 03:47 Mostly Cloudy with Freezing Fog 27 -3 25 -4 93 93 N N/A 30.10 1019 0 0 N/A
3:53 am 03:53 Clear with Freezing Fog 28 -2.2 26 -3.3 92 92 N N/A 30.07 1018 0 0 N/A
4:03 am 04:03 Clear with Freezing Fog 27 -2.8 27 -2.8 100 100 N N/A 30.09 1019 1 1 N/A
4:11 am 04:11 Mostly Cloudy with Freezing Fog 27 -2.8 26 -3.3 96 96 NE 3 6 30.09 1019 0 0 N/A
4:21 am 04:21 Mostly Cloudy with Mist and Fog 28 -2.2 27 -2.8 96 96 ENE 3 6 30.09 1019 1 1 N/A
4:29 am 04:29 Mostly Cloudy with Freezing Fog 27 -2.8 26 -3.3 96 96 ENE 3 6 30.10 1019 0 0 N/A
4:37 am 04:37 Mostly Cloudy with Freezing Fog 27 -2.8 27 -2.8 100 100 N N/A 30.10 1019 1 1 N/A
4:53 am 04:53 Mostly Cloudy with Mist and Fog 25 -3.9 25 -3.9 100 100 N N/A 30.07 1018 2 2 N/A
4:58 am 04:58 Partly Cloudy with Mist and Fog 25 -3.9 24 -4.4 96 96 N N/A 30.11 1020 2 3 N/A
5:09 am 05:09 Mostly Cloudy with Mist and Fog 25 -3.9 23 -5 92 92 N N/A 30.11 1020 1 2 N/A
5:16 am 05:16 Mostly Cloudy with Freezing Fog 26 -3.3 24 -4.4 92 92 N N/A 30.11 1019 1 1 N/A
5:24 am 05:24 Mostly Cloudy with Freezing Fog 26 -3.3 25 -3.9 96 96 S 3 6 30.11 1019 0 0 N/A
5:53 am 05:53 Mostly Cloudy with Freezing Fog 27 -2.8 26 -3.3 96 96 N N/A 30.08 1019 0 0 N/A
6:53 am 06:53 Mostly Cloudy with Freezing Fog 24 -4.4 24 -4.4 100 100 N N/A 30.11 1020 0 0 N/A
7:19 am 07:19 Mostly Cloudy with Freezing Fog 26 -3.3 25 -3.9 96 96 N N/A 30.14 1020 1 1 N/A
7:50 am 07:50 Mostly Cloudy with Freezing Fog 25 -4 23 -5 93 93 N N/A 30.14 1021 0 0 N/A
7:53 am 07:53 Mostly Cloudy with Freezing Fog 25 -3.9 24 -4.4 96 96 N N/A 30.11 1020 0 0 N/A
8:53 am 08:53 Mostly Cloudy with Freezing Fog 28 -2.2 27 -2.8 96 96 N N/A 30.10 1019 0 0 N/A
9:45 am 09:45 Mostly Cloudy with Mist and Fog 32 undefined 31 -0.6 96 96 N N/A 30.12 1020 1 1 N/A
9:53 am 09:53 Mostly Cloudy with Mist and Fog 32 undefined 32 undefined 100 100 N N/A 30.11 1020 1 2 N/A
10:00 am 10:00 Mostly Cloudy with Mist and Fog 32 undefined 32 undefined 100 100 N N/A 30.12 1020 2 3 N/A
10:17 am 10:17 Mostly Cloudy with Mist and Fog 34 1.1 34 1.1 100 100 N N/A 30.12 1020 3 5 N/A
10:34 am 10:34 Partly Cloudy with Mist and Fog 36 2.2 36 2.2 100 100 N N/A 30.10 1019 4 6 N/A
10:53 am 10:53 Sunny 38 3.3 37 2.8 97 97 SSW 3 6 30.10 1019 10 16 N/A
11:53 am 11:53 Sunny 47 8.3 39 3.9 74 74 N N/A 30.08 1019 10 16 N/A
12:53 pm 12:53 Sunny 54 12.2 41 5 62 62 N N/A 30.04 1017 10 16 N/A
1:53 pm 13:53 Sunny 59 15 41 5 51 51 N N/A 30.03 1017 10 16 N/A
2:53 pm 14:53 Sunny 64 17.8 43 6.1 46 46 N N/A 30.02 1017 10 16 N/A
3:53 pm 15:53 Sunny 64 17.8 44 6.7 48 48 SSW 8 13 30.02 1017 10 16 N/A
4:53 pm 16:53 Sunny 61 16.1 44 6.7 54 54 N N/A 30.02 1017 10 16 N/A
5:53 pm 17:53 Clear 50 10 43 6.1 77 77 N N/A 30.04 1017 10 16 N/A
6:53 pm 18:53 Clear 48 8.9 43 6.1 83 83 N N/A 30.05 1018 10 16 N/A
7:53 pm 19:53 Clear 42 5.6 39 3.9 89 89 N N/A 30.06 1018 10 16 N/A
8:53 pm 20:53 Clear 42 5.6 41 5 96 96 N N/A 30.06 1018 10 16 N/A
9:53 pm 21:53 Clear 38 3.3 37 2.8 97 97 N N/A 30.07 1018 10 16 N/A
10:53 pm 22:53 Clear 38 3.3 37 2.8 97 97 N N/A 30.07 1018 10 16 N/A
11:53 pm 23:53 Clear 37 2.8 35 1.7 93 93 N N/A 30.06 1018 10 16 N/A

Powered by AerisWeather